COSMOS 1176

Satellite information

Favourite Embed

Satellite Type and Status

PAYLOADIN ORBIT

Key statistics

Satellite COSMOS 1176 at a glance.

Uptime

16447

Days in orbit

Revolutions

≈ 13.9

Per day

Orbit

LEO

Low Earth Orbit

Inclination

64.8

Latest

Satellite identification and parameters

Extended collection of information and parameters for COSMOS 1176.

Object identification

Identified? True

Debris? False

Object name: COSMOS 1176

International designator: 1980-034A

Object number (NORAD): 11788

Object ID (CCSDS): 11788

Country: COMMONWEALTH OF INDEPENDENT STATES (CIS)

Current information (Y/N): Y

RCS size: LARGE

Orbital parameters

Period: 103.366 minutes

Inclination: 64.8307 deg

SMA: 7295.879 km

Apoapsis: 942.736 km

Periapsis: 892.752 km

RAAN: 0.0898 deg

Eccentricy: 0.0034255

Argument of periapsis: 18.3362 deg

Mean anomaly: 341.8927 deg

Mean motion: 13.93113011 rev/day

Mean motion (dot): -0.00000038 rev/day2

B* drag term: 0.000041167 1/REarth

Two-line elements (TLE)

Creation date: May 10, 2025, 2:32 a.m.

Reference frame: TEME

Reference center: EARTH

Epoch: May 9, 2025, 10 p.m. UTC

TLE line 0: 0 COSMOS 1176

TLE line 1: 1 11788U 80034A 25129.91734258 -.00000038 00000-0 41167-4 0 9993

TLE line 2: 2 11788 64.8307 0.0898 0034255 18.3362 341.8927 13.93113011285644

Live tracking on map

Real-time ground track for satellite COSMOS 1176.

In-orbit conjunctions

A list of the most updated potential collisions computed for object COSMOS 1176.

Target Orbit TCA Probability of collision Miss distance Type
ELECTRON KICK STAGE R/B LEO 2025-04-24 01:37:14 0.0001389699 607.0 (m) ROCKET BODY

Associated space launch

Active radar satellite for ocean surveillance powered by a nuclear reactor.

COSMOS 1176 was lifted into orbit during the mission ‘Tsiklon-2 | US-A 16’, on board a Tsiklon-2 space rocket.

The launch took place on April 29, 1980, 11:40 a.m. from 90.

For more information about the launch, click the button.

Launch to space Tsiklon-2 | US-A 16
Tsiklon-2 | US-A 16

Agency: N/A

Status: Launch Successful

Launch date: April 29, 1980, 11:40 a.m. UTC

Rocket: Tsiklon-2

Launch pad: 90

Location: Baikonur Cosmodrome, Republic of Kazakhstan

...

Latest news about this satellite

There are no fresh news available about this satellite. Check back as we update our databases every day.


Newsletter sign-up

Weekly statistics, charts and insights to help you stay on top of the space industry.